星链-35196(STARLINK-35196)

导读

STARLINK-35196是美国SpaceX星链互联网星座的卫星,于2025年10月16日发射升空,归属美国所有。它是星链大规模低轨组网部署的新增节点,依托低轨轨道布局,可为全球覆盖区域提供高速低延迟的宽带互联网服务,支撑星链系统在通信、导航等领域的服务能力拓展,延续了星链星座持续扩容的部署节奏。

基本信息
目录编号:
66007
目录名称:
STARLINK-35196
国际标识:
2025-232C
轨道中心:
EARTH
卫星名称:
星链-35196
卫星全名:
星链-35196(STARLINK-35196)
卫星状态:
在轨 (已飞行240 天)
发射日期:
2025-10-16 UTC
国别 :
美国 (US)
星等 :
--
轨道信息
数据来源 国际轨道数据
星历时间: 2026-06-13T05:22:47+0800
15小时前
查看轨道信息
半长轴: 6853.261km
偏心率: 0.0001228
轨道倾角: 53.161°
近地点辐角 118.902°
升交点赤经 21.552°
平近点角 241.211°
近地点: 474.282km
远地点: 475.966km
周期: 94.103分钟
每日圈数: 15.302306
详细信息
固有亮度:
5
最大亮度:
2.5
卫星平台:
Starlink V1.0
覆盖范围:
全球
运营商:
太空探索技术公司
运营商所在国:
美国
制造商(研发单位):
太空探索技术公司
制造商所在国:
美国
使用方式:
暂无
卫星简介
Starlink 计划是 SpaceX 推出的全球卫星互联网项目,通过发射低轨道卫星,为全球尤其是偏远地区提供高速、低延迟的互联网服务。自 2019 年起,Starlink 已部署数千颗卫星,旨在缩小全球数字鸿沟,推动互联网普及。该项目还为军事、航空等行业提供通信支持,带来广泛经济效益。
2D轨道图
3D轨道图
轨道高度分析图
轨道倾角分析图
轨道综合分析图
查看轨道综合分析图